START_TIME,STEP,MOV.,A46,t_acc.,A13,t_acc.,M47,t_acc.,A17,t_acc.,A28,t_acc.,M38,t_acc.
1979-08-05 00:00:24.130 ,0,0,,0,2.,4.8,1.,4.8,,0,0.,4.8,0.,4.8
1979-08-05 00:00:28.930 ,0,0,,0,2.,4.8,0.,4.8,,0,0.,4.8,0.,4.8
1979-08-05 00:00:33.730 ,0,0,,0,2.,4.8,0.,4.8,,0,0.,4.8,0.,4.8
1979-08-05 00:00:38.530 ,0,0,,0,0.,4.8,0.,4.8,,0,0.,4.8,0.,4.8
1979-08-05 00:00:43.330 ,0,0,,0,0.,4.8,0.,4.8,,0,0.,4.8,0.,4.8
1979-08-05 00:00:48.130 ,1,0,,0,0.,4.8,0.,4.8,,0,0.,4.8,1.,4.8
1979-08-05 00:00:52.930 ,1,0,,0,2.,4.8,0.,4.8,,0,0.,4.8,0.,4.8
1979-08-05 00:00:57.730 ,1,0,,0,0.,4.8,0.,4.8,,0,0.,4.8,0.,4.8
1979-08-05 00:01:02.530 ,1,0,,0,1.,4.8,1.,4.8,,0,0.,4.8,0.,4.8
1979-08-05 00:01:07.330 ,1,0,,0,1.,4.8,0.,4.8,,0,0.,4.8,0.,4.8
1979-08-05 00:01:12.130 ,1,0,,0,2.,4.8,0.,4.8,,0,0.,4.8,1.,4.8
1979-08-05 00:01:16.930 ,1,0,,0,5.,4.8,1.,4.8,,0,0.,4.8,0.,4.8
1979-08-05 00:01:21.730 ,1,0,,0,2.,4.8,1.,4.8,,0,0.,4.8,0.,4.8
1979-08-05 00:01:26.530 ,1,0,,0,0.,4.8,0.,4.8,,0,0.,4.8,0.,4.8
1979-08-05 00:01:31.330 ,1,0,,0,0.,4.8,0.,4.8,,0,0.,4.8,0.,4.8
1979-08-05 00:01:36.130 ,2,0,,0,0.,4.8,0.,4.8,,0,0.,4.8,1.,4.8
1979-08-05 00:01:40.930 ,2,0,,0,0.,4.8,1.,4.8,,0,0.,4.8,0.,4.8
1979-08-05 00:01:45.730 ,2,0,,0,0.,4.8,0.,4.8,,0,0.,4.8,0.,4.8
1979-08-05 00:01:50.530 ,2,0,,0,1.,4.8,0.,4.8,,0,0.,4.8,1.,4.8
1979-08-05 00:01:55.330 ,2,0,,0,3.,4.8,0.,4.8,,0,1.,4.8,1.,4.8
1979-08-05 00:02:00.130 ,2,0,,0,6.,4.8,0.,4.8,,0,0.,4.8,1.,4.8
1979-08-05 00:02:04.930 ,2,0,,0,3.,4.8,0.,4.8,,0,0.,4.8,0.,4.8
1979-08-05 00:02:09.730 ,2,0,,0,2.,4.8,0.,4.8,,0,0.,4.8,0.,4.8
1979-08-05 00:02:14.530 ,2,0,,0,0.,4.8,0.,4.8,,0,0.,4.8,0.,4.8
1979-08-05 00:02:19.330 ,2,0,,0,0.,4.8,0.,4.8,,0,0.,4.8,0.,4.8
1979-08-05 00:02:24.130 ,3,0,,0,0.,4.8,0.,4.8,,0,0.,4.8,0.,4.8
1979-08-05 00:02:28.930 ,3,0,,0,0.,4.8,0.,4.8,,0,0.,4.8,0.,4.8
1979-08-05 00:02:33.730 ,3,0,,0,0.,4.8,0.,4.8,,0,0.,4.8,0.,4.8
1979-08-05 00:02:38.530 ,3,0,,0,4.,4.8,0.,4.8,,0,0.,4.8,0.,4.8
1979-08-05 00:02:43.330 ,3,0,,0,1.,4.8,0.,4.8,,0,0.,4.8,1.,4.8
1979-08-05 00:02:48.130 ,3,0,,0,0.,4.8,0.,4.8,,0,0.,4.8,0.,4.8
1979-08-05 00:02:52.930 ,3,0,,0,2.,4.8,0.,4.8,,0,0.,4.8,0.,4.8
1979-08-05 00:02:57.730 ,3,0,,0,4.,4.8,0.,4.8,,0,0.,4.8,0.,4.8
1979-08-05 00:03:02.530 ,3,0,,0,0.,4.8,0.,4.8,,0,0.,4.8,0.,4.8
1979-08-05 00:03:07.330 ,3,0,,0,0.,4.8,0.,4.8,,0,0.,4.8,0.,4.8
1979-08-05 00:03:12.130 ,4,0,,0,0.,4.8,0.,4.8,,0,0.,4.8,0.,4.8
1979-08-05 00:03:16.930 ,4,0,,0,0.,4.8,0.,4.8,,0,0.,4.8,0.,4.8
1979-08-05 00:03:21.730 ,4,0,,0,3.,4.8,0.,4.8,,0,0.,4.8,0.,4.8
1979-08-05 00:03:26.530 ,4,0,,0,2.,4.8,0.,4.8,,0,0.,4.8,0.,4.8
1979-08-05 00:03:31.330 ,4,0,,0,5.,4.8,1.,4.8,,0,0.,4.8,1.,4.8
1979-08-05 00:03:36.130 ,4,0,,0,4.,4.8,0.,4.8,,0,0.,4.8,0.,4.8
1979-08-05 00:03:40.930 ,4,0,,0,4.,4.8,0.,4.8,,0,0.,4.8,0.,4.8
1979-08-05 00:03:45.730 ,4,0,,0,1.,4.8,0.,4.8,,0,0.,4.8,0.,4.8
1979-08-05 00:03:50.530 ,4,0,,0,0.,4.8,0.,4.8,,0,0.,4.8,0.,4.8
1979-08-05 00:03:55.330 ,4,0,,0,0.,4.8,0.,4.8,,0,0.,4.8,0.,4.8
1979-08-05 00:04:00.130 ,5,0,,0,0.,4.8,0.,4.8,,0,0.,4.8,1.,4.8
1979-08-05 00:04:04.930 ,5,0,,0,0.,4.8,0.,4.8,,0,0.,4.8,0.,4.8
1979-08-05 00:04:09.730 ,5,0,,0,0.,4.8,0.,4.8,,0,0.,4.8,0.,4.8
1979-08-05 00:04:14.530 ,5,0,,0,2.,4.8,1.,4.8,,0,0.,4.8,0.,4.8
1979-08-05 00:04:19.330 ,5,0,,0,1.,4.8,0.,4.8,,0,0.,4.8,0.,4.8
1979-08-05 00:04:24.130 ,5,0,,0,5.,4.8,0.,4.8,,0,0.,4.8,0.,4.8
1979-08-05 00:04:28.930 ,5,0,,0,6.,4.8,2.,4.8,,0,0.,4.8,0.,4.8
1979-08-05 00:04:33.730 ,5,0,,0,2.,4.8,0.,4.8,,0,0.,4.8,0.,4.8
1979-08-05 00:04:38.530 ,5,0,,0,0.,4.8,0.,4.8,,0,0.,4.8,0.,4.8
1979-08-05 00:04:43.330 ,5,0,,0,0.,4.8,0.,4.8,,0,0.,4.8,0.,4.8
1979-08-05 00:04:48.130 ,6,0,,0,0.,4.8,0.,4.8,,0,0.,4.8,0.,4.8
1979-08-05 00:04:52.930 ,6,0,,0,0.,4.8,0.,4.8,,0,0.,4.8,0.,4.8
1979-08-05 00:04:57.730 ,6,0,,0,1.,4.8,0.,4.8,,0,0.,4.8,0.,4.8
1979-08-05 00:05:02.530 ,6,0,,0,4.,4.8,0.,4.8,,0,0.,4.8,0.,4.8
1979-08-05 00:05:07.330 ,6,0,,0,4.,4.8,0.,4.8,,0,0.,4.8,0.,4.8
1979-08-05 00:05:12.130 ,6,0,,0,6.,4.8,0.,4.8,,0,0.,4.8,1.,4.8
1979-08-05 00:05:16.930 ,6,0,,0,2.,4.8,0.,4.8,,0,0.,4.8,0.,4.8
1979-08-05 00:05:21.730 ,6,0,,0,2.,4.8,0.,4.8,,0,0.,4.8,0.,4.8
1979-08-05 00:05:26.530 ,6,0,,0,0.,4.8,0.,4.8,,0,0.,4.8,0.,4.8
1979-08-05 00:05:31.330 ,6,0,,0,0.,4.8,0.,4.8,,0,0.,4.8,0.,4.8
1979-08-05 00:05:36.130 ,7,0,,0,0.,4.8,0.,4.8,,0,0.,4.8,0.,4.8
1979-08-05 00:05:40.930 ,7,0,,0,0.,4.8,0.,4.8,,0,0.,4.8,0.,4.8
1979-08-05 00:05:45.730 ,7,0,,0,2.,4.8,0.,4.8,,0,0.,4.8,0.,4.8
1979-08-05 00:05:50.530 ,7,0,,0,6.,4.8,0.,4.8,,0,0.,4.8,0.,4.8
1979-08-05 00:05:55.330 ,7,0,,0,17.,4.8,0.,4.8,,0,0.,4.8,0.,4.8
1979-08-05 00:06:00.130 ,7,0,,0,10.,4.8,0.,4.8,,0,0.,4.8,0.,4.8
1979-08-05 00:06:04.930 ,7,0,,0,5.,4.8,0.,4.8,,0,0.,4.8,0.,4.8
1979-08-05 00:06:09.730 ,7,0,,0,13.,4.8,0.,4.8,,0,0.,4.8,0.,4.8
1979-08-05 00:06:14.530 ,7,0,,0,1.,4.8,0.,4.8,,0,0.,4.8,0.,4.8
1979-08-05 00:06:19.330 ,7,0,,0,0.,4.8,0.,4.8,,0,0.,4.8,0.,4.8
1979-08-05 00:06:24.130 ,7,0,,0,0.,4.8,0.,4.8,,0,0.,4.8,0.,4.8
1979-08-05 00:06:28.930 ,7,0,,0,0.,4.8,0.,4.8,,0,0.,4.8,0.,4.8
1979-08-05 00:06:33.730 ,7,0,,0,1.,4.8,0.,4.8,,0,0.,4.8,0.,4.8
1979-08-05 00:06:38.530 ,7,0,,0,8.,4.8,0.,4.8,,0,0.,4.8,0.,4.8
1979-08-05 00:06:43.330 ,7,0,,0,13.,4.8,0.,4.8,,0,0.,4.8,0.,4.8
1979-08-05 00:06:48.130 ,7,0,,0,8.,4.8,0.,4.8,,0,0.,4.8,0.,4.8
1979-08-05 00:06:52.930 ,7,0,,0,8.,4.8,0.,4.8,,0,0.,4.8,0.,4.8
1979-08-05 00:06:57.730 ,7,0,,0,14.,4.8,0.,4.8,,0,0.,4.8,0.,4.8
1979-08-05 00:07:02.530 ,7,0,,0,0.,4.8,0.,4.8,,0,0.,4.8,0.,4.8
1979-08-05 00:07:07.330 ,7,0,,0,0.,4.8,0.,4.8,,0,0.,4.8,0.,4.8
1979-08-05 00:07:12.130 ,6,0,,0,0.,4.8,0.,4.8,,0,0.,4.8,0.,4.8
1979-08-05 00:07:16.930 ,6,0,,0,0.,4.8,0.,4.8,,0,0.,4.8,0.,4.8
1979-08-05 00:07:21.730 ,6,0,,0,1.,4.8,0.,4.8,,0,0.,4.8,0.,4.8
1979-08-05 00:07:26.530 ,6,0,,0,4.,4.8,0.,4.8,,0,0.,4.8,0.,4.8
1979-08-05 00:07:31.330 ,6,0,,0,2.,4.8,0.,4.8,,0,0.,4.8,0.,4.8
1979-08-05 00:07:36.130 ,6,0,,0,4.,4.8,0.,4.8,,0,0.,4.8,0.,4.8
1979-08-05 00:07:40.930 ,6,0,,0,3.,4.8,1.,4.8,,0,0.,4.8,0.,4.8
1979-08-05 00:07:45.730 ,6,0,,0,4.,4.8,0.,4.8,,0,0.,4.8,0.,4.8
1979-08-05 00:07:50.530 ,6,0,,0,0.,4.8,0.,4.8,,0,0.,4.8,0.,4.8
1979-08-05 00:07:55.330 ,6,0,,0,0.,4.8,0.,4.8,,0,0.,4.8,0.,4.8
1979-08-05 00:08:00.130 ,5,0,,0,0.,4.8,0.,4.8,,0,0.,4.8,1.,4.8
1979-08-05 00:08:04.930 ,5,0,,0,0.,4.8,0.,4.8,,0,0.,4.8,0.,4.8
1979-08-05 00:08:09.730 ,5,0,,0,1.,4.8,0.,4.8,,0,0.,4.8,0.,4.8
1979-08-05 00:08:14.530 ,5,0,,0,1.,4.8,0.,4.8,,0,0.,4.8,0.,4.8
1979-08-05 00:08:19.330 ,5,0,,0,3.,4.8,0.,4.8,,0,0.,4.8,0.,4.8
1979-08-05 00:08:24.130 ,5,0,,0,3.,4.8,0.,4.8,,0,0.,4.8,0.,4.8
1979-08-05 00:08:28.930 ,5,0,,0,2.,4.8,0.,4.8,,0,0.,4.8,0.,4.8
1979-08-05 00:08:33.730 ,5,0,,0,2.,4.8,0.,4.8,,0,0.,4.8,0.,4.8
1979-08-05 00:08:38.530 ,5,0,,0,0.,4.8,0.,4.8,,0,0.,4.8,0.,4.8
1979-08-05 00:08:43.330 ,5,0,,0,0.,4.8,0.,4.8,,0,0.,4.8,0.,4.8
1979-08-05 00:08:48.130 ,4,0,,0,0.,4.8,0.,4.8,,0,0.,4.8,0.,4.8
1979-08-05 00:08:52.930 ,4,0,,0,0.,4.8,0.,4.8,,0,0.,4.8,0.,4.8
1979-08-05 00:08:57.730 ,4,0,,0,0.,4.8,0.,4.8,,0,0.,4.8,0.,4.8
1979-08-05 00:09:02.530 ,4,0,,0,5.,4.8,0.,4.8,,0,0.,4.8,0.,4.8
1979-08-05 00:09:07.330 ,4,0,,0,2.,4.8,0.,4.8,,0,0.,4.8,1.,4.8
1979-08-05 00:09:12.130 ,4,0,,0,3.,4.8,0.,4.8,,0,0.,4.8,0.,4.8
1979-08-05 00:09:16.930 ,4,0,,0,6.,4.8,0.,4.8,,0,0.,4.8,0.,4.8
1979-08-05 00:09:21.730 ,4,0,,0,0.,4.8,0.,4.8,,0,0.,4.8,0.,4.8
1979-08-05 00:09:26.530 ,4,0,,0,0.,4.8,0.,4.8,,0,0.,4.8,0.,4.8
1979-08-05 00:09:31.330 ,4,0,,0,0.,4.8,0.,4.8,,0,0.,4.8,0.,4.8
1979-08-05 00:09:36.130 ,3,0,,0,0.,4.8,0.,4.8,,0,0.,4.8,0.,4.8
1979-08-05 00:09:40.930 ,3,0,,0,0.,4.8,0.,4.8,,0,0.,4.8,0.,4.8
1979-08-05 00:09:45.730 ,3,0,,0,2.,4.8,0.,4.8,,0,0.,4.8,0.,4.8
1979-08-05 00:09:50.530 ,3,0,,0,3.,4.8,0.,4.8,,0,0.,4.8,0.,4.8
1979-08-05 00:09:55.330 ,3,0,,0,5.,4.8,0.,4.8,,0,0.,4.8,0.,4.8
1979-08-05 00:10:00.130 ,3,0,,0,2.,4.8,0.,4.8,,0,0.,4.8,0.,4.8
1979-08-05 00:10:04.930 ,3,0,,0,2.,4.8,0.,4.8,,0,0.,4.8,0.,4.8
1979-08-05 00:10:09.730 ,3,0,,0,3.,4.8,0.,4.8,,0,0.,4.8,0.,4.8
1979-08-05 00:10:14.530 ,3,0,,0,0.,4.8,0.,4.8,,0,0.,4.8,0.,4.8
1979-08-05 00:10:19.330 ,3,0,,0,0.,4.8,0.,4.8,,0,1.,4.8,0.,4.8
1979-08-05 00:10:24.130 ,2,0,,0,0.,4.8,0.,4.8,,0,0.,4.8,0.,4.8
1979-08-05 00:10:28.930 ,2,0,,0,1.,4.8,0.,4.8,,0,0.,4.8,0.,4.8
1979-08-05 00:10:33.730 ,2,0,,0,0.,4.8,0.,4.8,,0,0.,4.8,0.,4.8
1979-08-05 00:10:38.530 ,2,0,,0,2.,4.8,0.,4.8,,0,0.,4.8,0.,4.8
1979-08-05 00:10:43.330 ,2,0,,0,0.,4.8,0.,4.8,,0,0.,4.8,0.,4.8
1979-08-05 00:10:48.130 ,2,0,,0,1.,4.8,0.,4.8,,0,0.,4.8,0.,4.8
1979-08-05 00:10:52.930 ,2,0,,0,2.,4.8,0.,4.8,,0,0.,4.8,0.,4.8
1979-08-05 00:10:57.730 ,2,0,,0,1.,4.8,0.,4.8,,0,0.,4.8,0.,4.8
1979-08-05 00:11:02.530 ,2,0,,0,0.,4.8,0.,4.8,,0,0.,4.8,0.,4.8
1979-08-05 00:11:07.330 ,2,0,,0,0.,4.8,0.,4.8,,0,0.,4.8,0.,4.8
1979-08-05 00:11:12.130 ,1,0,,0,0.,4.8,0.,4.8,,0,0.,4.8,2.,4.8
1979-08-05 00:11:16.930 ,1,0,,0,0.,4.8,0.,4.8,,0,0.,4.8,0.,4.8
1979-08-05 00:11:21.730 ,1,0,,0,1.,4.8,0.,4.8,,0,0.,4.8,0.,4.8
1979-08-05 00:11:26.530 ,1,0,,0,1.,4.8,0.,4.8,,0,0.,4.8,0.,4.8
1979-08-05 00:11:31.330 ,1,0,,0,3.,4.8,0.,4.8,,0,0.,4.8,0.,4.8
1979-08-05 00:11:36.130 ,1,0,,0,3.,4.8,1.,4.8,,0,0.,4.8,0.,4.8
1979-08-05 00:11:40.930 ,1,0,,0,5.,4.8,0.,4.8,,0,0.,4.8,0.,4.8
1979-08-05 00:11:45.730 ,1,0,,0,3.,4.8,0.,4.8,,0,0.,4.8,1.,4.8
1979-08-05 00:11:50.530 ,1,0,,0,0.,4.8,0.,4.8,,0,0.,4.8,0.,4.8
1979-08-05 00:11:55.330 ,1,0,,0,1.,4.8,0.,4.8,,0,0.,4.8,0.,4.8
1979-08-05 00:12:00.130 ,0,0,,0,0.,4.8,0.,4.8,,0,1.,4.8,0.,4.8
1979-08-05 00:12:04.930 ,0,0,,0,0.,4.8,0.,4.8,,0,0.,4.8,0.,4.8
1979-08-05 00:12:09.730 ,0,0,,0,2.,4.8,0.,4.8,,0,0.,4.8,0.,4.8
1979-08-05 00:12:14.530 ,0,0,,0,2.,4.8,1.,4.8,,0,0.,4.8,0.,4.8
1979-08-05 00:12:19.330 ,0,0,,0,8.,4.8,4.,4.8,,0,0.,4.8,0.,4.8
1979-08-05 00:12:24.130 ,0,0,,0,3.,4.8,0.,4.8,,0,0.,4.8,0.,4.8
1979-08-05 00:12:28.930 ,0,0,,0,3.,4.8,0.,4.8,,0,0.,4.8,1.,4.8
1979-08-05 00:12:33.730 ,0,0,,0,4.,4.8,2.,4.8,,0,0.,4.8,0.,4.8
1979-08-05 00:12:38.530 ,0,0,,0,0.,4.8,0.,4.8,,0,0.,4.8,1.,4.8
1979-08-05 00:12:43.330 ,0,0,,0,0.,4.8,0.,4.8,,0,0.,4.8,0.,4.8
1979-08-05 00:12:48.130 ,0,0,,0,0.,4.8,0.,4.8,,0,0.,4.8,0.,4.8
1979-08-05 00:12:52.930 ,0,0,,0,0.,4.8,0.,4.8,,0,0.,4.8,0.,4.8
1979-08-05 00:12:57.730 ,0,0,,0,0.,4.8,0.,4.8,,0,0.,4.8,0.,4.8
1979-08-05 00:13:02.530 ,0,0,,0,6.,4.8,3.,4.8,,0,0.,4.8,2.,4.8
1979-08-05 00:13:07.330 ,0,0,,0,6.,4.8,2.,4.8,,0,0.,4.8,0.,4.8
1979-08-05 00:13:12.130 ,0,0,,0,3.,4.8,2.,4.8,,0,0.,4.8,1.,4.8
1979-08-05 00:13:16.930 ,0,0,,0,7.,4.8,3.,4.8,,0,0.,4.8,2.,4.8
1979-08-05 00:13:21.730 ,0,0,,0,6.,4.8,2.,4.8,,0,0.,4.8,2.,4.8
1979-08-05 00:13:26.530 ,0,0,,0,0.,4.8,0.,4.8,,0,0.,4.8,2.,4.8
1979-08-05 00:13:31.330 ,0,0,,0,0.,4.8,0.,4.8,,0,0.,4.8,0.,4.8
1979-08-05 00:13:36.130 ,1,0,,0,0.,4.8,0.,4.8,,0,0.,4.8,5.,4.8
1979-08-05 00:13:40.930 ,1,0,,0,0.,4.8,0.,4.8,,0,0.,4.8,1.,4.8
1979-08-05 00:13:45.730 ,1,0,,0,0.,4.8,0.,4.8,,0,0.,4.8,0.,4.8
1979-08-05 00:13:50.530 ,1,0,,0,2.,4.8,0.,4.8,,0,0.,4.8,1.,4.8
1979-08-05 00:13:55.330 ,1,0,,0,2.,4.8,1.,4.8,,0,0.,4.8,0.,4.8
1979-08-05 00:14:00.130 ,1,0,,0,4.,4.8,0.,4.8,,0,0.,4.8,0.,4.8
1979-08-05 00:14:04.930 ,1,0,,0,4.,4.8,0.,4.8,,0,0.,4.8,0.,4.8
1979-08-05 00:14:09.730 ,1,0,,0,1.,4.8,0.,4.8,,0,0.,4.8,1.,4.8
1979-08-05 00:14:14.530 ,1,0,,0,1.,4.8,0.,4.8,,0,0.,4.8,1.,4.8
1979-08-05 00:14:19.330 ,1,0,,0,0.,4.8,0.,4.8,,0,0.,4.8,0.,4.8
1979-08-05 00:14:24.130 ,2,0,,0,0.,4.8,0.,4.8,,0,0.,4.8,1.,4.8
1979-08-05 00:14:28.930 ,2,0,,0,0.,4.8,0.,4.8,,0,0.,4.8,0.,4.8
1979-08-05 00:14:33.730 ,2,0,,0,1.,4.8,0.,4.8,,0,0.,4.8,0.,4.8
1979-08-05 00:14:38.530 ,2,0,,0,2.,4.8,0.,4.8,,0,0.,4.8,0.,4.8
1979-08-05 00:14:43.330 ,2,0,,0,2.,4.8,0.,4.8,,0,0.,4.8,0.,4.8
1979-08-05 00:14:48.130 ,2,0,,0,3.,4.8,1.,4.8,,0,0.,4.8,0.,4.8
1979-08-05 00:14:52.930 ,2,0,,0,3.,4.8,0.,4.8,,0,0.,4.8,0.,4.8
1979-08-05 00:14:57.730 ,2,0,,0,2.,4.8,0.,4.8,,0,0.,4.8,3.,4.8
1979-08-05 00:15:02.530 ,2,0,,0,0.,4.8,0.,4.8,,0,0.,4.8,0.,4.8
1979-08-05 00:15:07.330 ,2,0,,0,0.,4.8,0.,4.8,,0,0.,4.8,0.,4.8
1979-08-05 00:15:12.130 ,3,0,,0,0.,4.8,0.,4.8,,0,0.,4.8,0.,4.8
1979-08-05 00:15:16.930 ,3,0,,0,0.,4.8,1.,4.8,,0,0.,4.8,0.,4.8
1979-08-05 00:15:21.730 ,3,0,,0,2.,4.8,0.,4.8,,0,0.,4.8,1.,4.8
1979-08-05 00:15:26.530 ,3,0,,0,1.,4.8,0.,4.8,,0,0.,4.8,0.,4.8
1979-08-05 00:15:31.330 ,3,0,,0,1.,4.8,0.,4.8,,0,0.,4.8,0.,4.8
1979-08-05 00:15:36.130 ,3,0,,0,2.,4.8,0.,4.8,,0,0.,4.8,2.,4.8
1979-08-05 00:15:40.930 ,3,0,,0,4.,4.8,0.,4.8,,0,0.,4.8,1.,4.8
1979-08-05 00:15:45.730 ,3,0,,0,3.,4.8,0.,4.8,,0,0.,4.8,1.,4.8
1979-08-05 00:15:50.530 ,3,0,,0,0.,4.8,0.,4.8,,0,0.,4.8,0.,4.8
1979-08-05 00:15:55.330 ,3,0,,0,0.,4.8,0.,4.8,,0,0.,4.8,1.,4.8
1979-08-05 00:16:00.130 ,4,0,,0,0.,4.8,0.,4.8,,0,0.,4.8,0.,4.8
1979-08-05 00:16:04.930 ,4,0,,0,0.,4.8,0.,4.8,,0,0.,4.8,0.,4.8
1979-08-05 00:16:09.730 ,4,0,,0,0.,4.8,0.,4.8,,0,1.,4.8,0.,4.8
1979-08-05 00:16:14.530 ,4,0,,0,1.,4.8,0.,4.8,,0,0.,4.8,0.,4.8
1979-08-05 00:16:19.330 ,4,0,,0,2.,4.8,0.,4.8,,0,0.,4.8,0.,4.8
1979-08-05 00:16:24.130 ,4,0,,0,2.,4.8,0.,4.8,,0,0.,4.8,0.,4.8
1979-08-05 00:16:28.930 ,4,0,,0,2.,4.8,0.,4.8,,0,0.,4.8,0.,4.8
1979-08-05 00:16:33.730 ,4,0,,0,2.,4.8,0.,4.8,,0,0.,4.8,1.,4.8
1979-08-05 00:16:38.530 ,4,0,,0,0.,4.8,0.,4.8,,0,0.,4.8,0.,4.8
1979-08-05 00:16:43.330 ,4,0,,0,1.,4.8,0.,4.8,,0,0.,4.8,0.,4.8
1979-08-05 00:16:48.130 ,5,0,,0,0.,4.8,0.,4.8,,0,0.,4.8,0.,4.8
1979-08-05 00:16:52.930 ,5,0,,0,1.,4.8,0.,4.8,,0,0.,4.8,1.,4.8
1979-08-05 00:16:57.730 ,5,0,,0,0.,4.8,0.,4.8,,0,0.,4.8,0.,4.8
1979-08-05 00:17:02.530 ,5,0,,0,5.,4.8,0.,4.8,,0,0.,4.8,0.,4.8
1979-08-05 00:17:07.330 ,5,0,,0,3.,4.8,0.,4.8,,0,0.,4.8,0.,4.8
1979-08-05 00:17:12.130 ,5,0,,0,6.,4.8,1.,4.8,,0,0.,4.8,1.,4.8
1979-08-05 00:17:16.930 ,5,0,,0,4.,4.8,0.,4.8,,0,0.,4.8,0.,4.8
1979-08-05 00:17:21.730 ,5,0,,0,0.,4.8,0.,4.8,,0,0.,4.8,0.,4.8
1979-08-05 00:17:26.530 ,5,0,,0,0.,4.8,1.,4.8,,0,0.,4.8,0.,4.8
1979-08-05 00:17:31.330 ,5,0,,0,0.,4.8,0.,4.8,,0,0.,4.8,0.,4.8
1979-08-05 00:17:36.130 ,6,0,,0,0.,4.8,0.,4.8,,0,0.,4.8,0.,4.8
1979-08-05 00:17:40.930 ,6,0,,0,0.,4.8,0.,4.8,,0,0.,4.8,0.,4.8
1979-08-05 00:17:45.730 ,6,0,,0,2.,4.8,0.,4.8,,0,0.,4.8,0.,4.8
1979-08-05 00:17:50.530 ,6,0,,0,5.,4.8,1.,4.8,,0,0.,4.8,0.,4.8
1979-08-05 00:17:55.330 ,6,0,,0,3.,4.8,0.,4.8,,0,0.,4.8,0.,4.8
1979-08-05 00:18:00.130 ,6,0,,0,2.,4.8,0.,4.8,,0,0.,4.8,0.,4.8
1979-08-05 00:18:04.930 ,6,0,,0,4.,4.8,0.,4.8,,0,0.,4.8,0.,4.8
1979-08-05 00:18:09.730 ,6,0,,0,4.,4.8,1.,4.8,,0,0.,4.8,0.,4.8
1979-08-05 00:18:14.530 ,6,0,,0,0.,4.8,0.,4.8,,0,0.,4.8,0.,4.8
1979-08-05 00:18:19.330 ,6,0,,0,0.,4.8,0.,4.8,,0,0.,4.8,0.,4.8
1979-08-05 00:18:24.130 ,7,0,,0,0.,4.8,0.,4.8,,0,0.,4.8,0.,4.8
1979-08-05 00:18:28.930 ,7,0,,0,0.,4.8,0.,4.8,,0,0.,4.8,0.,4.8
1979-08-05 00:18:33.730 ,7,0,,0,0.,4.8,0.,4.8,,0,0.,4.8,0.,4.8
1979-08-05 00:18:38.530 ,7,0,,0,16.,4.8,0.,4.8,,0,0.,4.8,0.,4.8
1979-08-05 00:18:43.330 ,7,0,,0,11.,4.8,0.,4.8,,0,0.,4.8,0.,4.8
1979-08-05 00:18:48.130 ,7,0,,0,12.,4.8,0.,4.8,,0,0.,4.8,0.,4.8
1979-08-05 00:18:52.930 ,7,0,,0,7.,4.8,0.,4.8,,0,0.,4.8,0.,4.8
1979-08-05 00:18:57.730 ,7,0,,0,9.,4.8,0.,4.8,,0,0.,4.8,0.,4.8
1979-08-05 00:19:02.530 ,7,0,,0,0.,4.8,0.,4.8,,0,0.,4.8,0.,4.8
1979-08-05 00:19:07.330 ,7,0,,0,0.,4.8,0.,4.8,,0,0.,4.8,0.,4.8
1979-08-05 00:19:12.130 ,3,1,,0,0.,4.8,0.,4.8,,0,0.,4.8,0.,4.8
1979-08-05 00:19:16.930 ,3,1,,0,1.,4.8,0.,4.8,,0,0.,4.8,0.,4.8
1979-08-05 00:19:21.730 ,3,1,,0,1.,4.8,0.,4.8,,0,0.,4.8,1.,4.8
1979-08-05 00:19:26.530 ,3,1,,0,3.,4.8,0.,4.8,,0,0.,4.8,0.,4.8
1979-08-05 00:19:31.330 ,3,1,,0,4.,4.8,0.,4.8,,0,0.,4.8,0.,4.8
1979-08-05 00:19:36.130 ,0,1,,0,3.,4.8,0.,4.8,,0,0.,4.8,1.,4.8
1979-08-05 00:19:40.930 ,0,1,,0,5.,4.8,0.,4.8,,0,0.,4.8,0.,4.8
1979-08-05 00:19:45.730 ,0,1,,0,1.,4.8,0.,4.8,,0,0.,4.8,0.,4.8
1979-08-05 00:19:50.530 ,0,1,,0,0.,4.8,0.,4.8,,0,0.,4.8,1.,4.8
1979-08-05 00:19:55.330 ,0,1,,0,0.,4.8,0.,4.8,,0,0.,4.8,2.,4.8
1979-08-05 00:20:00.130 ,4,1,,0,0.,4.8,0.,4.8,,0,0.,4.8,3.,4.8
1979-08-05 00:20:04.930 ,4,1,,0,0.,4.8,0.,4.8,,0,0.,4.8,0.,4.8
1979-08-05 00:20:09.730 ,4,1,,0,1.,4.8,0.,4.8,,0,0.,4.8,0.,4.8
1979-08-05 00:20:14.530 ,4,1,,0,3.,4.8,0.,4.8,,0,0.,4.8,0.,4.8
1979-08-05 00:20:19.330 ,4,1,,0,1.,4.8,0.,4.8,,0,0.,4.8,0.,4.8
1979-08-05 00:20:24.130 ,7,1,,0,1.,4.8,0.,4.8,,0,0.,4.8,0.,4.8
1979-08-05 00:20:28.930 ,7,1,,0,4.,4.8,0.,4.8,,0,0.,4.8,0.,4.8
1979-08-05 00:20:33.730 ,7,1,,0,2.,4.8,0.,4.8,,0,0.,4.8,0.,4.8
1979-08-05 00:20:38.530 ,7,1,,0,0.,4.8,0.,4.8,,0,0.,4.8,0.,4.8
1979-08-05 00:20:43.330 ,7,1,,0,0.,4.8,0.,4.8,,0,0.,4.8,0.,4.8
1979-08-05 00:20:48.130 ,3,1,,0,0.,4.8,0.,4.8,,0,0.,4.8,0.,4.8
1979-08-05 00:20:52.930 ,3,1,,0,0.,4.8,0.,4.8,,0,0.,4.8,1.,4.8
1979-08-05 00:20:57.730 ,3,1,,0,2.,4.8,0.,4.8,,0,0.,4.8,0.,4.8
1979-08-05 00:21:02.530 ,3,1,,0,3.,4.8,0.,4.8,,0,1.,4.8,0.,4.8
1979-08-05 00:21:07.330 ,3,1,,0,2.,4.8,0.,4.8,,0,0.,4.8,0.,4.8
1979-08-05 00:21:12.130 ,0,1,,0,4.,4.8,0.,4.8,,0,0.,4.8,0.,4.8
1979-08-05 00:21:16.930 ,0,1,,0,3.,4.8,2.,4.8,,0,0.,4.8,1.,4.8
1979-08-05 00:21:21.730 ,0,1,,0,2.,4.8,0.,4.8,,0,0.,4.8,0.,4.8
1979-08-05 00:21:26.530 ,0,1,,0,0.,4.8,0.,4.8,,0,0.,4.8,1.,4.8
1979-08-05 00:21:31.330 ,0,1,,0,0.,4.8,0.,4.8,,0,0.,4.8,1.,4.8
1979-08-05 00:21:36.130 ,4,1,,0,0.,4.8,0.,4.8,,0,0.,4.8,2.,4.8
1979-08-05 00:21:40.930 ,4,1,,0,0.,4.8,0.,4.8,,0,0.,4.8,0.,4.8
1979-08-05 00:21:45.730 ,4,1,,0,1.,4.8,0.,4.8,,0,0.,4.8,0.,4.8
1979-08-05 00:21:50.530 ,4,1,,0,0.,4.8,0.,4.8,,0,0.,4.8,0.,4.8
1979-08-05 00:21:55.330 ,4,1,,0,1.,4.8,0.,4.8,,0,0.,4.8,0.,4.8
1979-08-05 00:22:00.130 ,7,1,,0,2.,4.8,0.,4.8,,0,0.,4.8,0.,4.8
1979-08-05 00:22:04.930 ,7,1,,0,2.,4.8,0.,4.8,,0,1.,4.8,0.,4.8
1979-08-05 00:22:09.730 ,7,1,,0,5.,4.8,0.,4.8,,0,0.,4.8,0.,4.8
1979-08-05 00:22:14.530 ,7,1,,0,1.,4.8,0.,4.8,,0,0.,4.8,0.,4.8
1979-08-05 00:22:19.330 ,7,1,,0,0.,4.8,0.,4.8,,0,0.,4.8,0.,4.8
1979-08-05 00:22:24.130 ,3,1,,0,0.,4.8,0.,4.8,,0,0.,4.8,0.,4.8
1979-08-05 00:22:28.930 ,3,1,,0,0.,4.8,0.,4.8,,0,0.,4.8,0.,4.8
1979-08-05 00:22:33.730 ,3,1,,0,1.,4.8,0.,4.8,,0,0.,4.8,0.,4.8
1979-08-05 00:22:38.530 ,3,1,,0,5.,4.8,0.,4.8,,0,0.,4.8,0.,4.8
1979-08-05 00:22:43.330 ,3,1,,0,4.,4.8,0.,4.8,,0,0.,4.8,0.,4.8
1979-08-05 00:22:48.130 ,0,1,,0,1.,4.8,0.,4.8,,0,0.,4.8,0.,4.8
1979-08-05 00:22:52.930 ,0,1,,0,2.,4.8,0.,4.8,,0,0.,4.8,0.,4.8
1979-08-05 00:22:57.730 ,0,1,,0,1.,4.8,0.,4.8,,0,0.,4.8,0.,4.8
1979-08-05 00:23:02.530 ,0,1,,0,0.,4.8,0.,4.8,,0,0.,4.8,0.,4.8
1979-08-05 00:23:07.330 ,0,1,,0,0.,4.8,0.,4.8,,0,0.,4.8,2.,4.8
1979-08-05 00:23:12.130 ,4,1,,0,0.,4.8,0.,4.8,,0,0.,4.8,0.,4.8
1979-08-05 00:23:16.930 ,4,1,,0,1.,4.8,0.,4.8,,0,0.,4.8,0.,4.8
1979-08-05 00:23:21.730 ,4,1,,0,2.,4.8,0.,4.8,,0,0.,4.8,0.,4.8
1979-08-05 00:23:26.530 ,4,1,,0,2.,4.8,0.,4.8,,0,0.,4.8,0.,4.8
1979-08-05 00:23:31.330 ,4,1,,0,4.,4.8,0.,4.8,,0,0.,4.8,0.,4.8
1979-08-05 00:23:36.130 ,7,1,,0,5.,4.8,0.,4.8,,0,0.,4.8,0.,4.8
1979-08-05 00:23:40.930 ,7,1,,0,2.,4.8,0.,4.8,,0,0.,4.8,0.,4.8
1979-08-05 00:23:45.730 ,7,1,,0,3.,4.8,0.,4.8,,0,0.,4.8,0.,4.8
1979-08-05 00:23:50.530 ,7,1,,0,0.,4.8,0.,4.8,,0,0.,4.8,0.,4.8
1979-08-05 00:23:55.330 ,7,1,,0,0.,4.8,0.,4.8,,0,0.,4.8,0.,4.8
1979-08-05 00:24:00.130 ,3,1,,0,0.,4.8,0.,4.8,,0,0.,4.8,0.,4.8
1979-08-05 00:24:04.930 ,3,1,,0,0.,4.8,0.,4.8,,0,0.,4.8,0.,4.8
1979-08-05 00:24:09.730 ,3,1,,0,2.,4.8,0.,4.8,,0,0.,4.8,0.,4.8
1979-08-05 00:24:14.530 ,3,1,,0,1.,4.8,0.,4.8,,0,0.,4.8,0.,4.8
1979-08-05 00:24:19.330 ,3,1,,0,2.,4.8,0.,4.8,,0,0.,4.8,1.,4.8
1979-08-05 00:24:24.130 ,0,1,,0,2.,4.8,0.,4.8,,0,0.,4.8,0.,4.8
1979-08-05 00:24:28.930 ,0,1,,0,3.,4.8,2.,4.8,,0,0.,4.8,1.,4.8
1979-08-05 00:24:33.730 ,0,1,,0,4.,4.8,2.,4.8,,0,0.,4.8,1.,4.8
1979-08-05 00:24:38.530 ,0,1,,0,0.,4.8,0.,4.8,,0,0.,4.8,1.,4.8
1979-08-05 00:24:43.330 ,0,1,,0,0.,4.8,0.,4.8,,0,0.,4.8,2.,4.8
1979-08-05 00:24:48.130 ,4,1,,0,0.,4.8,0.,4.8,,0,0.,4.8,0.,4.8
1979-08-05 00:24:52.930 ,4,1,,0,0.,4.8,0.,4.8,,0,0.,4.8,0.,4.8
1979-08-05 00:24:57.730 ,4,1,,0,0.,4.8,0.,4.8,,0,0.,4.8,0.,4.8
1979-08-05 00:25:02.530 ,4,1,,0,1.,4.8,0.,4.8,,0,0.,4.8,0.,4.8
1979-08-05 00:25:07.330 ,4,1,,0,2.,4.8,0.,4.8,,0,0.,4.8,0.,4.8
1979-08-05 00:25:12.130 ,7,1,,0,2.,4.8,0.,4.8,,0,0.,4.8,0.,4.8
1979-08-05 00:25:16.930 ,7,1,,0,0.,4.8,0.,4.8,,0,0.,4.8,0.,4.8
1979-08-05 00:25:21.730 ,7,1,,0,4.,4.8,0.,4.8,,0,0.,4.8,0.,4.8
1979-08-05 00:25:26.530 ,7,1,,0,0.,4.8,0.,4.8,,0,0.,4.8,0.,4.8
1979-08-05 00:25:31.330 ,7,1,,0,0.,4.8,0.,4.8,,0,0.,4.8,0.,4.8
1979-08-05 00:25:36.130 ,3,1,,0,0.,4.8,0.,4.8,,0,0.,4.8,0.,4.8
1979-08-05 00:25:40.930 ,3,1,,0,0.,4.8,0.,4.8,,0,0.,4.8,0.,4.8
1979-08-05 00:25:45.730 ,3,1,,0,2.,4.8,0.,4.8,,0,0.,4.8,0.,4.8
1979-08-05 00:25:50.530 ,3,1,,0,4.,4.8,0.,4.8,,0,0.,4.8,0.,4.8
1979-08-05 00:25:55.330 ,3,1,,0,2.,4.8,0.,4.8,,0,0.,4.8,1.,4.8
1979-08-05 00:26:00.130 ,0,1,,0,2.,4.8,0.,4.8,,0,0.,4.8,0.,4.8
1979-08-05 00:26:04.930 ,0,1,,0,5.,4.8,1.,4.8,,0,0.,4.8,0.,4.8
1979-08-05 00:26:09.730 ,0,1,,0,4.,4.8,1.,4.8,,0,0.,4.8,1.,4.8
1979-08-05 00:26:14.530 ,0,1,,0,0.,4.8,0.,4.8,,0,0.,4.8,1.,4.8
1979-08-05 00:26:19.330 ,0,1,,0,0.,4.8,0.,4.8,,0,0.,4.8,4.,4.8
1979-08-05 00:26:24.130 ,4,1,,0,0.,4.8,0.,4.8,,0,0.,4.8,1.,4.8
1979-08-05 00:26:28.930 ,4,1,,0,0.,4.8,0.,4.8,,0,0.,4.8,0.,4.8
1979-08-05 00:26:33.730 ,4,1,,0,0.,4.8,0.,4.8,,0,0.,4.8,0.,4.8
1979-08-05 00:26:38.530 ,4,1,,0,3.,4.8,0.,4.8,,0,0.,4.8,0.,4.8
1979-08-05 00:26:43.330 ,4,1,,0,2.,4.8,0.,4.8,,0,0.,4.8,0.,4.8
1979-08-05 00:26:48.130 ,7,1,,0,2.,4.8,0.,4.8,,0,0.,4.8,0.,4.8
1979-08-05 00:26:52.930 ,7,1,,0,2.,4.8,0.,4.8,,0,0.,4.8,0.,4.8
1979-08-05 00:26:57.730 ,7,1,,0,2.,4.8,0.,4.8,,0,0.,4.8,0.,4.8
1979-08-05 00:27:02.530 ,7,1,,0,0.,4.8,0.,4.8,,0,0.,4.8,0.,4.8
1979-08-05 00:27:07.330 ,7,1,,0,0.,4.8,0.,4.8,,0,0.,4.8,0.,4.8
1979-08-05 00:27:12.130 ,3,1,,0,0.,4.8,0.,4.8,,0,0.,4.8,0.,4.8
1979-08-05 00:27:16.930 ,3,1,,0,0.,4.8,0.,4.8,,0,0.,4.8,0.,4.8
1979-08-05 00:27:21.730 ,3,1,,0,2.,4.8,0.,4.8,,0,0.,4.8,0.,4.8
1979-08-05 00:27:26.530 ,3,1,,0,4.,4.8,0.,4.8,,0,0.,4.8,0.,4.8
1979-08-05 00:27:31.330 ,3,1,,0,5.,4.8,1.,4.8,,0,0.,4.8,0.,4.8
1979-08-05 00:27:36.130 ,0,1,,0,2.,4.8,0.,4.8,,0,0.,4.8,0.,4.8
1979-08-05 00:27:40.930 ,0,1,,0,5.,4.8,1.,4.8,,0,0.,4.8,0.,4.8
1979-08-05 00:27:45.730 ,0,1,,0,6.,4.8,3.,4.8,,0,0.,4.8,0.,4.8
1979-08-05 00:27:50.530 ,0,1,,0,0.,4.8,0.,4.8,,0,0.,4.8,2.,4.8
1979-08-05 00:27:55.330 ,0,1,,0,0.,4.8,0.,4.8,,0,0.,4.8,2.,4.8
1979-08-05 00:28:00.130 ,4,1,,0,0.,4.8,0.,4.8,,0,0.,4.8,0.,4.8
1979-08-05 00:28:04.930 ,4,1,,0,0.,4.8,0.,4.8,,0,0.,4.8,1.,4.8
1979-08-05 00:28:09.730 ,4,1,,0,0.,4.8,0.,4.8,,0,0.,4.8,0.,4.8
1979-08-05 00:28:14.530 ,4,1,,0,4.,4.8,0.,4.8,,0,0.,4.8,1.,4.8
1979-08-05 00:28:19.330 ,4,1,,0,3.,4.8,0.,4.8,,0,0.,4.8,0.,4.8
1979-08-05 00:28:24.130 ,7,1,,0,1.,4.8,0.,4.8,,0,0.,4.8,0.,4.8
1979-08-05 00:28:28.930 ,7,1,,0,3.,4.8,0.,4.8,,0,0.,4.8,0.,4.8
1979-08-05 00:28:33.730 ,7,1,,0,3.,4.8,0.,4.8,,0,0.,4.8,1.,4.8
1979-08-05 00:28:38.530 ,7,1,,0,0.,4.8,0.,4.8,,0,0.,4.8,0.,4.8
1979-08-05 00:28:43.330 ,7,1,,0,0.,4.8,0.,4.8,,0,0.,4.8,0.,4.8
1979-08-05 00:28:48.130 ,3,1,,0,0.,4.8,0.,4.8,,0,0.,4.8,1.,4.8
1979-08-05 00:28:52.930 ,3,1,,0,0.,4.8,0.,4.8,,0,0.,4.8,1.,4.8
1979-08-05 00:28:57.730 ,3,1,,0,1.,4.8,0.,4.8,,0,0.,4.8,0.,4.8
1979-08-05 00:29:02.530 ,3,1,,0,5.,4.8,0.,4.8,,0,0.,4.8,0.,4.8
1979-08-05 00:29:07.330 ,3,1,,0,4.,4.8,0.,4.8,,0,0.,4.8,0.,4.8
1979-08-05 00:29:12.130 ,0,1,,0,1.,4.8,0.,4.8,,0,0.,4.8,0.,4.8
1979-08-05 00:29:16.930 ,0,1,,0,3.,4.8,0.,4.8,,0,0.,4.8,0.,4.8
1979-08-05 00:29:21.730 ,0,1,,0,7.,4.8,2.,4.8,,0,0.,4.8,1.,4.8
1979-08-05 00:29:26.530 ,0,1,,0,0.,4.8,0.,4.8,,0,0.,4.8,2.,4.8
1979-08-05 00:29:31.330 ,0,1,,0,0.,4.8,0.,4.8,,0,0.,4.8,1.,4.8
1979-08-05 00:29:36.130 ,0,0,,0,0.,4.8,0.,4.8,,0,0.,4.8,1.,4.8
1979-08-05 00:29:40.930 ,0,0,,0,0.,4.8,0.,4.8,,0,0.,4.8,2.,4.8
1979-08-05 00:29:45.730 ,0,0,,0,0.,4.8,0.,4.8,,0,0.,4.8,0.,4.8
1979-08-05 00:29:50.530 ,0,0,,0,2.,4.8,0.,4.8,,0,0.,4.8,0.,4.8
1979-08-05 00:29:55.330 ,0,0,,0,3.,4.8,0.,4.8,,0,0.,4.8,1.,4.8
1979-08-05 00:30:00.130 ,0,0,,0,2.,4.8,0.,4.8,,0,0.,4.8,0.,4.8
1979-08-05 00:30:04.930 ,0,0,,0,1.,4.8,1.,4.8,,0,0.,4.8,0.,4.8
1979-08-05 00:30:09.730 ,0,0,,0,1.,4.8,0.,4.8,,0,0.,4.8,0.,4.8